Clarksburg, WV

11:56 PM EDT on October 23, 2019 (GMT -0400)
Benedum

Weather History for KCKB - August, 2019

Change the Weather History Date:

Saturday, August 24, 2019

  Actual Average Record
Temperature  
Mean Temperature 66 °F -  
Max Temperature 77 °F 81 °F 93 °F (1936)
Min Temperature 55 °F 58 °F 44 °F (1952)
Cooling Degree Days 1    
Growing Degree Days 16 (Base 50)    
Moisture  
Dew Point 53 °F    
Average Humidity 78    
Maximum Humidity 94    
Minimum Humidity 40    
Precipitation  
Precipitation 0.00 in - - ()
Sea Level Pressure  
Sea Level Pressure 30.17 in    
Wind  
Wind Speed 2 mph ()    
Max Wind Speed 14 mph    
Max Gust Speed -    
Visibility 5.3 miles    
Events Fog    
Averages and records for this station are not official NWS values.
T = Trace of Precipitation, MM = Missing Value Source: Averaged Metar Reports

Daily Weather History Graph

Daily Weather History Graph

Search for Another Location

Airport or City:

Astronomy

Aug. 24, 2019 Rise Set
Actual Time 6:41 AM EDT 8:04 PM EDT
Civil Twilight 6:13 AM EDT 8:31 PM EDT
Nautical Twilight 5:40 AM EDT 9:05 PM EDT
Astronomical Twilight 5:04 AM EDT 9:40 PM EDT
Moon 12:34 AM EDT 3:17 PM EDT
Length of Visible Light 14h 18m
Length of Day
13h 22m
Last Quarter, 39% of the Moon is Illuminated
Aug 24
Last Quarter
Aug 30
New
Sep 5
First Quarter
Sep 14
Full
Sep 21
Last Quarter

Hourly Weather History & Observations

Time (EDT) Temp. Dew Point Humidity Pressure Visibility Wind Dir Wind Speed Gust Speed Precip Events Conditions
12:53 AM 57.9 °F 55.0 °F 90% 30.14 in 10.0 mi Calm Calm - N/A   Clear
1:21 AM 57.9 °F 54.0 °F 87% 30.16 in 1.8 mi Calm Calm - N/A   Clear
1:31 AM 57.9 °F 54.0 °F 87% 30.16 in 0.5 mi Calm Calm - N/A Fog Fog
1:41 AM 57.0 °F 54.0 °F 89% 30.16 in 0.5 mi Calm Calm - N/A Fog Fog
1:53 AM 55.9 °F 53.1 °F 90% 30.14 in 0.2 mi Calm Calm - N/A Fog Fog
1:59 AM 55.9 °F 53.1 °F 90% 30.16 in 1.2 mi Calm Calm - N/A   Partly Cloudy
2:02 AM 55.9 °F 53.1 °F 90% 30.16 in 4.0 mi Calm Calm - N/A   Partly Cloudy
2:11 AM 57.0 °F 53.1 °F 87% 30.16 in 1.5 mi Calm Calm - N/A   Partly Cloudy
2:14 AM 55.9 °F 53.1 °F 90% 30.16 in 0.8 mi Calm Calm - N/A   Mist
2:34 AM 55.9 °F 53.1 °F 90% 30.16 in 1.2 mi Calm Calm - N/A   Partly Cloudy
2:38 AM 55.9 °F 53.1 °F 90% 30.16 in 0.8 mi Calm Calm - N/A   Mist
2:51 AM 55.4 °F 53.6 °F 94% 30.16 in 0.5 mi Calm Calm - N/A Fog Fog
2:53 AM 55.9 °F 53.1 °F 90% 30.13 in 0.5 mi Calm Calm - N/A Fog Fog
3:53 AM 55.0 °F 53.1 °F 93% 30.14 in 0.2 mi Calm Calm - N/A Fog Fog
4:53 AM 55.0 °F 52.0 °F 89% 30.14 in 0.2 mi Calm Calm - N/A Fog Fog
5:53 AM 55.9 °F 53.1 °F 90% 30.15 in 0.2 mi NNE 4.6 mph - N/A Fog Fog
6:53 AM 55.9 °F 53.1 °F 90% 30.18 in 0.2 mi Calm Calm - N/A Fog Fog
7:14 AM 55.9 °F 53.1 °F 90% 30.21 in 0.2 mi Calm Calm - N/A Fog Fog
7:23 AM 55.9 °F 53.1 °F 90% 30.22 in 0.2 mi East 3.5 mph - N/A Fog Fog
7:42 AM 55.9 °F 53.1 °F 90% 30.22 in 2.0 mi ENE 3.5 mph - N/A   Overcast
7:51 AM 55.4 °F 53.6 °F 94% 30.22 in 5.0 mi NE 4.6 mph - N/A   Mostly Cloudy
7:53 AM 55.9 °F 53.1 °F 90% 30.19 in 6.0 mi NE 4.6 mph - N/A   Mostly Cloudy
8:53 AM 57.0 °F 55.0 °F 93% 30.20 in 10.0 mi NE 3.5 mph - N/A   Overcast
9:21 AM 59.0 °F 55.9 °F 90% 30.23 in 10.0 mi Calm Calm - N/A   Mostly Cloudy
9:44 AM 61.0 °F 57.0 °F 87% 30.22 in 10.0 mi NE 5.8 mph - N/A   Scattered Clouds
9:53 AM 63.0 °F 57.0 °F 81% 30.19 in 10.0 mi ENE 3.5 mph - N/A   Partly Cloudy
11:53 AM 71.1 °F 55.0 °F 57% 30.19 in 10.0 mi ENE 5.8 mph - N/A   Scattered Clouds
12:53 PM 73.0 °F 57.0 °F 57% 30.18 in 10.0 mi NNW 6.9 mph - N/A   Partly Cloudy
1:53 PM 75.0 °F 55.0 °F 50% 30.17 in 10.0 mi NNE 13.8 mph - N/A   Mostly Cloudy
2:53 PM 77.0 °F 54.0 °F 45% 30.15 in 10.0 mi NNE 10.4 mph - N/A   Partly Cloudy
3:53 PM 75.9 °F 53.1 °F 45% 30.14 in 10.0 mi NNE 11.5 mph - N/A   Clear
4:53 PM 77.0 °F 53.1 °F 43% 30.13 in 10.0 mi North 11.5 mph - N/A   Clear
5:53 PM 75.9 °F 50.0 °F 40% 30.14 in 10.0 mi East 8.1 mph - N/A   Clear
6:53 PM 73.0 °F 51.1 °F 46% 30.13 in 10.0 mi NNE 8.1 mph - N/A   Clear
7:53 PM 68.0 °F 51.1 °F 55% 30.14 in 10.0 mi NNE 8.1 mph - N/A   Clear
8:53 PM 66.0 °F 51.1 °F 59% 30.16 in 10.0 mi NNE 6.9 mph - N/A   Overcast
9:53 PM 64.0 °F 51.1 °F 63% 30.18 in 10.0 mi NNE 5.8 mph - N/A   Mostly Cloudy
10:53 PM 62.1 °F 51.1 °F 67% 30.19 in 10.0 mi NE 3.5 mph - N/A   Mostly Cloudy
11:53 PM 62.1 °F 51.1 °F 67% 30.18 in 10.0 mi ENE 4.6 mph - N/A   Partly Cloudy